| time (UTC) | temp F | wind direction | speed MPH | gust MPH | rain 1hr in | rain 24hr in | rain mn in | humidity % | barometer mb |
| 20260507003904 | 42 | 211 | 5.0 | 12.0 | 0.00 | 0.00 | 0.00 | 42 | 1014.4 |
| 20260507003343 | 42 | 247 | 5.0 | 12.0 | 0.00 | 0.00 | 0.00 | 42 | 1014.5 |
| 20260507002836 | 42 | 268 | 4.0 | 12.0 | 0.00 | 0.00 | 0.00 | 43 | 1014.5 |
| 20260507002335 | 42 | 262 | 4.0 | 10.0 | 0.00 | 0.00 | 0.00 | 43 | 1014.5 |
| 20260507001834 | 42 | 338 | 4.0 | 10.0 | 0.00 | 0.00 | 0.00 | 44 | 1014.6 |
| 20260507001332 | 42 | 244 | 5.0 | 10.0 | 0.00 | 0.00 | 0.00 | 44 | 1014.5 |
| 20260507000832 | 42 | 310 | 4.0 | 10.0 | 0.00 | 0.00 | 0.00 | 44 | 1014.5 |
| 20260507000336 | 42 | 263 | 4.0 | 10.0 | 0.00 | 0.00 | 0.00 | 44 | 1014.6 |
| 20260507000048 | 42 | 315 | 5.0 | 11.0 | 0.00 | 0.00 | 0.00 | 43 | 1014.6 |
| 20260506235319 | 42 | 288 | 5.0 | 10.0 | 0.00 | 0.00 | 0.00 | 44 | 1014.6 |
| 20260506234806 | 42 | 233 | 6.0 | 14.0 | 0.00 | 0.00 | 0.00 | 42 | 1014.6 |
| 20260506234305 | 43 | 284 | 7.0 | 14.0 | 0.00 | 0.00 | 0.00 | 41 | 1014.6 |
| 20260506234038 | 43 | 261 | 7.0 | 18.0 | 0.00 | 0.00 | 0.00 | 41 | 1014.6 |
| 20260506233249 | 43 | 246 | 6.0 | 18.0 | 0.00 | 0.00 | 0.00 | 41 | 1014.6 |
| 20260506232745 | 43 | 286 | 5.0 | 13.0 | 0.00 | 0.00 | 0.00 | 40 | 1014.7 |
| 20260506232229 | 43 | 254 | 7.0 | 13.0 | 0.00 | 0.00 | 0.00 | 40 | 1014.7 |
| 20260506231728 | 43 | 280 | 6.0 | 13.0 | 0.00 | 0.00 | 0.00 | 39 | 1014.6 |
| 20260506231205 | 43 | 243 | 6.0 | 15.0 | 0.00 | 0.00 | 0.00 | 39 | 1014.5 |
| 20260506230644 | 43 | 216 | 7.0 | 15.0 | 0.00 | 0.00 | 0.00 | 39 | 1014.5 |
| 20260506230119 | 43 | 12 | 7.0 | 16.0 | 0.00 | 0.00 | 0.00 | 39 | 1014.6 |
| 20260506225554 | 43 | 228 | 8.0 | 16.0 | 0.00 | 0.00 | 0.00 | 38 | 1014.6 |
| 20260506225050 | 43 | 263 | 6.0 | 14.0 | 0.00 | 0.00 | 0.00 | 38 | 1014.6 |
| 20260506224551 | 43 | 249 | 5.0 | 14.0 | 0.00 | 0.00 | 0.00 | 39 | 1014.6 |
| 20260506224530 | 43 | 288 | 7.0 | 14.0 | 0.00 | 0.00 | 0.00 | 38 | 1014.6 |
| 20260506223528 | 43 | 284 | 8.0 | 16.0 | 0.00 | 0.00 | 0.00 | 38 | 1014.6 |
| 20260506223002 | 43 | 247 | 7.0 | 16.0 | 0.00 | 0.00 | 0.00 | 38 | 1014.6 |
| 20260506222502 | 44 | 232 | 6.0 | 16.0 | 0.00 | 0.00 | 0.00 | 37 | 1014.5 |
| 20260506222232 | 44 | 218 | 6.0 | 15.0 | 0.00 | 0.00 | 0.00 | 37 | 1014.5 |
| 20260506221433 | 44 | 261 | 5.0 | 15.0 | 0.00 | 0.00 | 0.00 | 37 | 1014.5 |
| 20260506220906 | 44 | 272 | 5.0 | 13.0 | 0.00 | 0.00 | 0.00 | 37 | 1014.5 |
| 20260506220338 | 44 | 219 | 6.0 | 16.0 | 0.00 | 0.00 | 0.00 | 37 | 1014.5 |
| 20260506215835 | 43 | 238 | 7.0 | 16.0 | 0.00 | 0.00 | 0.00 | 37 | 1014.4 |
| 20260506215330 | 44 | 326 | 6.0 | 15.0 | 0.00 | 0.00 | 0.00 | 37 | 1014.5 |
| 20260506214830 | 44 | 228 | 5.0 | 15.0 | 0.00 | 0.00 | 0.00 | 37 | 1014.5 |
| 20260506214301 | 44 | 260 | 6.0 | 15.0 | 0.00 | 0.00 | 0.00 | 36 | 1014.4 |
| 20260506214029 | 44 | 257 | 9.0 | 17.0 | 0.00 | 0.00 | 0.00 | 36 | 1014.5 |
| 20260506213257 | 44 | 296 | 8.0 | 17.0 | 0.00 | 0.00 | 0.00 | 36 | 1014.5 |
| 20260506212730 | 44 | 276 | 6.0 | 14.0 | 0.00 | 0.00 | 0.00 | 35 | 1014.6 |
| 20260506212203 | 44 | 265 | 7.0 | 14.0 | 0.00 | 0.00 | 0.00 | 36 | 1014.4 |
| 20260506211701 | 44 | 294 | 5.0 | 14.0 | 0.00 | 0.00 | 0.00 | 37 | 1014.6 |
| 20260506211134 | 44 | 193 | 6.0 | 13.0 | 0.00 | 0.00 | 0.00 | 37 | 1014.5 |
| 20260506210629 | 44 | 267 | 6.0 | 15.0 | 0.00 | 0.00 | 0.00 | 37 | 1014.5 |
| 20260506210127 | 44 | 246 | 6.0 | 15.0 | 0.00 | 0.00 | 0.00 | 36 | 1014.3 |
| 20260506205601 | 44 | 277 | 8.0 | 16.0 | 0.00 | 0.00 | 0.00 | 36 | 1014.5 |
| 20260506205306 | 44 | 272 | 6.0 | 15.0 | 0.00 | 0.00 | 0.00 | 36 | 1014.6 |
| 20260506204531 | 44 | 235 | 6.0 | 15.0 | 0.00 | 0.00 | 0.00 | 36 | 1014.5 |
| 20260506204004 | 44 | 138 | 5.0 | 11.0 | 0.00 | 0.00 | 0.00 | 36 | 1014.6 |
| 20260506203732 | 44 | 226 | 6.0 | 15.0 | 0.00 | 0.00 | 0.00 | 38 | 1014.6 |
| 20260506202934 | 44 | 218 | 7.0 | 16.0 | 0.00 | 0.00 | 0.00 | 38 | 1014.7 |
| 20260506202431 | 44 | 355 | 5.0 | 16.0 | 0.00 | 0.00 | 0.00 | 38 | 1014.7 |
| 20260506201927 | 44 | 279 | 4.0 | 12.0 | 0.00 | 0.00 | 0.00 | 39 | 1014.6 |
| 20260506201655 | 43 | 281 | 6.0 | 12.0 | 0.00 | 0.00 | 0.00 | 39 | 1014.7 |
| 20260506201130 | 43 | 288 | 7.0 | 15.0 | 0.00 | 0.00 | 0.00 | 39 | 1014.7 |
| 20260506200354 | 43 | 259 | 7.0 | 15.0 | 0.00 | 0.00 | 0.00 | 39 | 1014.8 |
| 20260506195854 | 43 | 281 | 9.0 | 18.0 | 0.00 | 0.00 | 0.00 | 40 | 1014.7 |
| 20260506195325 | 43 | 306 | 8.0 | 18.0 | 0.00 | 0.00 | 0.00 | 40 | 1014.8 |
| 20260506194824 | 43 | 279 | 8.0 | 20.0 | 0.00 | 0.00 | 0.00 | 40 | 1015.0 |
| 20260506194255 | 43 | 319 | 8.0 | 20.0 | 0.00 | 0.00 | 0.00 | 40 | 1015.0 |
| 20260506193754 | 43 | 251 | 6.0 | 16.0 | 0.00 | 0.00 | 0.00 | 41 | 1014.9 |
| 20260506193227 | 43 | 319 | 7.0 | 16.0 | 0.00 | 0.00 | 0.00 | 42 | 1014.8 |
| 20260506192703 | 43 | 281 | 6.0 | 16.0 | 0.00 | 0.00 | 0.00 | 41 | 1014.8 |
| 20260506192135 | 43 | 324 | 6.0 | 15.0 | 0.00 | 0.00 | 0.00 | 42 | 1014.9 |
| 20260506191631 | 42 | 257 | 6.0 | 17.0 | 0.00 | 0.00 | 0.00 | 43 | 1014.8 |
| 20260506191129 | 42 | 286 | 7.0 | 20.0 | 0.00 | 0.00 | 0.00 | 43 | 1015.0 |
| 20260506190602 | 42 | 271 | 9.0 | 20.0 | 0.00 | 0.00 | 0.00 | 43 | 1015.0 |
| 20260506190058 | 42 | 278 | 9.0 | 18.0 | 0.00 | 0.00 | 0.00 | 42 | 1014.9 |
| 20260506185530 | 42 | 284 | 9.0 | 16.0 | 0.00 | 0.00 | 0.00 | 40 | 1014.9 |
| 20260506185001 | 42 | 261 | 7.0 | 15.0 | 0.00 | 0.00 | 0.00 | 40 | 1014.8 |
| 20260506184459 | 42 | 236 | 6.0 | 16.0 | 0.00 | 0.00 | 0.00 | 41 | 1014.9 |
| 20260506183931 | 42 | 336 | 7.0 | 16.0 | 0.00 | 0.00 | 0.00 | 39 | 1014.9 |
| 20260506183428 | 42 | 283 | 7.0 | 16.0 | 0.00 | 0.00 | 0.00 | 39 | 1014.9 |
| 20260506182904 | 42 | 229 | 5.0 | 15.0 | 0.00 | 0.00 | 0.00 | 39 | 1015.0 |
| 20260506182605 | 42 | 257 | 7.0 | 14.0 | 0.00 | 0.00 | 0.00 | 40 | 1014.9 |
| 20260506181831 | 42 | 290 | 8.0 | 18.0 | 0.00 | 0.00 | 0.00 | 39 | 1015.0 |
| 20260506181305 | 41 | 277 | 7.0 | 18.0 | 0.00 | 0.00 | 0.00 | 39 | 1014.9 |
| 20260506181241 | 42 | 250 | 5.0 | 13.0 | 0.00 | 0.00 | 0.00 | 39 | 1014.9 |
| 20260506180234 | 42 | 39 | 7.0 | 15.0 | 0.00 | 0.00 | 0.00 | 41 | 1015.0 |
| 20260506175709 | 41 | 279 | 7.0 | 15.0 | 0.00 | 0.00 | 0.00 | 39 | 1015.1 |
| 20260506175141 | 42 | 316 | 7.0 | 13.0 | 0.00 | 0.00 | 0.00 | 39 | 1015.0 |
| 20260506174617 | 42 | 321 | 7.0 | 20.0 | 0.00 | 0.00 | 0.00 | 39 | 1015.0 |
| 20260506174115 | 41 | 266 | 7.0 | 20.0 | 0.00 | 0.00 | 0.00 | 39 | 1015.1 |
| 20260506173613 | 41 | 283 | 8.0 | 18.0 | 0.00 | 0.00 | 0.00 | 39 | 1015.0 |
| 20260506173100 | 41 | 244 | 8.0 | 18.0 | 0.00 | 0.00 | 0.00 | 39 | 1015.2 |
| 20260506172835 | 41 | 313 | 9.0 | 21.0 | 0.00 | 0.00 | 0.00 | 39 | 1015.2 |
| 20260506172307 | 41 | 281 | 8.0 | 21.0 | 0.00 | 0.00 | 0.00 | 39 | 1015.1 |
| 20260506171512 | 41 | 288 | 7.0 | 17.0 | 0.00 | 0.00 | 0.00 | 39 | 1015.2 |
| 20260506170947 | 41 | 322 | 7.0 | 17.0 | 0.00 | 0.00 | 0.00 | 40 | 1015.2 |
| 20260506170450 | 40 | 211 | 7.0 | 15.0 | 0.00 | 0.00 | 0.00 | 41 | 1015.1 |
| 20260506165924 | 40 | 293 | 8.0 | 22.0 | 0.00 | 0.00 | 0.00 | 40 | 1015.3 |
| 20260506165653 | 41 | 309 | 8.0 | 22.0 | 0.00 | 0.00 | 0.00 | 41 | 1015.3 |
| 20260506165127 | 40 | 234 | 6.0 | 15.0 | 0.00 | 0.00 | 0.00 | 41 | 1015.1 |
| 20260506164357 | 41 | 243 | 6.0 | 15.0 | 0.00 | 0.00 | 0.00 | 40 | 1015.4 |
| 20260506163827 | 40 | 281 | 8.0 | 16.0 | 0.00 | 0.00 | 0.00 | 42 | 1015.3 |
| 20260506163311 | 39 | 236 | 7.0 | 16.0 | 0.00 | 0.00 | 0.00 | 42 | 1015.3 |
| 20260506162809 | 40 | 275 | 6.0 | 15.0 | 0.00 | 0.00 | 0.00 | 42 | 1015.3 |
| 20260506162540 | 39 | 327 | 7.0 | 15.0 | 0.00 | 0.00 | 0.00 | 42 | 1015.6 |
| 20260506161811 | 40 | 328 | 5.0 | 14.0 | 0.00 | 0.00 | 0.00 | 42 | 1015.5 |
| 20260506161257 | 40 | 274 | 5.0 | 14.0 | 0.00 | 0.00 | 0.00 | 42 | 1015.5 |
| 20260506161030 | 40 | 264 | 7.0 | 14.0 | 0.00 | 0.00 | 0.00 | 43 | 1015.5 |
| 20260506160243 | 39 | 231 | 7.0 | 11.0 | 0.00 | 0.00 | 0.00 | 43 | 1015.5 |
| 20260506155739 | 39 | 249 | 7.0 | 14.0 | 0.00 | 0.00 | 0.00 | 43 | 1015.5 |
| 20260506155233 | 39 | 287 | 6.0 | 12.0 | 0.00 | 0.00 | 0.00 | 43 | 1015.5 |
| 20260506154733 | 39 | 340 | 6.0 | 12.0 | 0.00 | 0.00 | 0.00 | 43 | 1015.4 |
| 20260506154444 | 39 | 334 | 7.0 | 14.0 | 0.00 | 0.00 | 0.00 | 44 | 1015.5 |
| 20260506153714 | 38 | 242 | 7.0 | 14.0 | 0.00 | 0.00 | 0.00 | 44 | 1015.5 |
| 20260506153155 | 38 | 273 | 5.0 | 15.0 | 0.00 | 0.00 | 0.00 | 45 | 1015.4 |
| 20260506152650 | 38 | 339 | 6.0 | 16.0 | 0.00 | 0.00 | 0.00 | 45 | 1015.5 |
| 20260506152147 | 38 | 296 | 7.0 | 16.0 | 0.00 | 0.00 | 0.00 | 44 | 1015.4 |
| 20260506151619 | 38 | 317 | 7.0 | 17.0 | 0.00 | 0.00 | 0.00 | 44 | 1015.5 |
| 20260506151119 | 38 | 321 | 7.0 | 17.0 | 0.00 | 0.00 | 0.00 | 44 | 1015.5 |
| 20260506150618 | 38 | 238 | 7.0 | 13.0 | 0.00 | 0.00 | 0.00 | 45 | 1015.5 |
| 20260506150100 | 38 | 279 | 7.0 | 18.0 | 0.00 | 0.00 | 0.00 | 45 | 1015.6 |
| 20260506150047 | 38 | 0 | 7.0 | 18.0 | 0.00 | 0.00 | 0.00 | 45 | 1015.6 |
| 20260506145012 | 38 | 288 | 7.0 | 15.0 | 0.00 | 0.00 | 0.00 | 45 | 1015.6 |
| 20260506144456 | 38 | 223 | 6.0 | 14.0 | 0.00 | 0.00 | 0.00 | 45 | 1015.5 |
| 20260506143955 | 38 | 238 | 6.0 | 13.0 | 0.00 | 0.00 | 0.00 | 45 | 1015.6 |
| 20260506143719 | 38 | 286 | 5.0 | 13.0 | 0.00 | 0.00 | 0.00 | 44 | 1015.6 |
| 20260506142947 | 38 | 302 | 5.0 | 14.0 | 0.00 | 0.00 | 0.00 | 44 | 1015.8 |
| 20260506142451 | 38 | 289 | 6.0 | 15.0 | 0.00 | 0.00 | 0.00 | 45 | 1015.8 |
| 20260506141927 | 37 | 248 | 6.0 | 15.0 | 0.00 | 0.00 | 0.00 | 45 | 1015.6 |
| 20260506141404 | 37 | 298 | 6.0 | 13.0 | 0.00 | 0.00 | 0.00 | 46 | 1015.8 |
| 20260506140839 | 37 | 235 | 7.0 | 15.0 | 0.00 | 0.00 | 0.00 | 45 | 1015.9 |
| 20260506140313 | 37 | 242 | 7.0 | 15.0 | 0.00 | 0.00 | 0.00 | 45 | 1015.9 |
| 20260506135813 | 37 | 245 | 7.0 | 16.0 | 0.00 | 0.00 | 0.00 | 45 | 1015.8 |
| 20260506135255 | 37 | 292 | 7.0 | 16.0 | 0.00 | 0.00 | 0.00 | 45 | 1015.6 |
| 20260506134723 | 37 | 311 | 6.0 | 14.0 | 0.00 | 0.00 | 0.00 | 45 | 1015.6 |
| 20260506134219 | 37 | 311 | 6.0 | 16.0 | 0.00 | 0.00 | 0.00 | 45 | 1015.6 |
| 20260506133718 | 37 | 248 | 6.0 | 16.0 | 0.00 | 0.00 | 0.00 | 45 | 1015.6 |
| 20260506133153 | 37 | 298 | 7.0 | 16.0 | 0.00 | 0.00 | 0.00 | 44 | 1015.5 |
| 20260506132650 | 38 | 255 | 8.0 | 19.0 | 0.00 | 0.00 | 0.00 | 46 | 1015.5 |
| 20260506132149 | 37 | 292 | 8.0 | 19.0 | 0.00 | 0.00 | 0.00 | 46 | 1015.5 |
| 20260506131646 | 37 | 306 | 8.0 | 19.0 | 0.00 | 0.00 | 0.00 | 47 | 1015.3 |
| 20260506131120 | 36 | 312 | 9.0 | 17.0 | 0.00 | 0.00 | 0.00 | 47 | 1015.4 |
| 20260506130824 | 36 | 304 | 8.0 | 15.0 | 0.00 | 0.00 | 0.00 | 48 | 1015.3 |
| 20260506130324 | 36 | 43 | 5.0 | 15.0 | 0.00 | 0.00 | 0.00 | 49 | 1015.3 |
| 20260506125522 | 36 | 346 | 5.0 | 10.0 | 0.00 | 0.00 | 0.00 | 48 | 1015.4 |
| 20260506124956 | 36 | 284 | 4.0 | 11.0 | 0.00 | 0.00 | 0.00 | 48 | 1015.3 |
| 20260506124442 | 35 | 310 | 5.0 | 11.0 | 0.00 | 0.00 | 0.00 | 49 | 1015.4 |
| 20260506123941 | 35 | 257 | 5.0 | 12.0 | 0.00 | 0.00 | 0.00 | 50 | 1015.2 |
| 20260506123715 | 35 | 279 | 5.0 | 12.0 | 0.00 | 0.00 | 0.00 | 51 | 1015.3 |
| 20260506122921 | 34 | 266 | 6.0 | 13.0 | 0.00 | 0.00 | 0.00 | 51 | 1015.1 |
| 20260506122412 | 34 | 313 | 5.0 | 13.0 | 0.00 | 0.00 | 0.00 | 52 | 1015.1 |
| 20260506121848 | 33 | 299 | 3.0 | 10.0 | 0.00 | 0.00 | 0.00 | 53 | 1015.0 |
| 20260506121323 | 33 | 269 | 2.0 | 7.0 | 0.00 | 0.00 | 0.00 | 53 | 1015.0 |
| 20260506120754 | 32 | 207 | 2.0 | 7.0 | 0.00 | 0.00 | 0.00 | 54 | 1014.9 |
| 20260506120227 | 32 | 284 | 3.0 | 8.0 | 0.00 | 0.00 | 0.00 | 54 | 1014.9 |
| 20260506115954 | 32 | 265 | 4.0 | 9.0 | 0.00 | 0.00 | 0.00 | 54 | 1014.9 |
| 20260506115158 | 32 | 292 | 3.0 | 7.0 | 0.00 | 0.00 | 0.00 | 53 | 1014.8 |
| 20260506114632 | 32 | 267 | 2.0 | 4.0 | 0.00 | 0.00 | 0.00 | 54 | 1014.8 |
| 20260506114335 | 32 | 223 | 2.0 | 5.0 | 0.00 | 0.00 | 0.00 | 54 | 1014.8 |
| 20260506113833 | 32 | 250 | 2.0 | 5.0 | 0.00 | 0.00 | 0.00 | 54 | 1014.7 |
| 20260506113036 | 32 | 290 | 2.0 | 7.0 | 0.00 | 0.00 | 0.00 | 54 | 1014.5 |
| 20260506112532 | 32 | 254 | 2.0 | 6.0 | 0.00 | 0.00 | 0.00 | 54 | 1014.5 |
| 20260506112030 | 32 | 221 | 3.0 | 8.0 | 0.00 | 0.00 | 0.00 | 54 | 1014.6 |
| 20260506111525 | 32 | 263 | 3.0 | 7.0 | 0.00 | 0.00 | 0.00 | 54 | 1014.5 |
| 20260506111000 | 32 | 269 | 2.0 | 7.0 | 0.00 | 0.00 | 0.00 | 53 | 1014.6 |
| 20260506110454 | 32 | 254 | 2.0 | 7.0 | 0.00 | 0.00 | 0.00 | 53 | 1014.6 |
| 20260506105952 | 32 | 267 | 2.0 | 6.0 | 0.00 | 0.00 | 0.00 | 53 | 1014.5 |
| 20260506105448 | 32 | 254 | 2.0 | 6.0 | 0.00 | 0.00 | 0.00 | 53 | 1014.5 |
| 20260506104945 | 32 | 250 | 3.0 | 6.0 | 0.00 | 0.00 | 0.00 | 53 | 1014.4 |
| 20260506104717 | 32 | 281 | 3.0 | 6.0 | 0.00 | 0.00 | 0.00 | 53 | 1014.4 |
| 20260506103934 | 32 | 263 | 3.0 | 7.0 | 0.00 | 0.00 | 0.00 | 53 | 1014.4 |
| 20260506103432 | 32 | 271 | 3.0 | 7.0 | 0.00 | 0.00 | 0.00 | 53 | 1014.4 |
| 20260506102928 | 32 | 258 | 3.0 | 8.0 | 0.00 | 0.00 | 0.00 | 53 | 1014.4 |
| 20260506102426 | 32 | 275 | 2.0 | 8.0 | 0.00 | 0.00 | 0.00 | 53 | 1014.5 |
| 20260506101859 | 32 | 252 | 2.0 | 8.0 | 0.00 | 0.00 | 0.00 | 53 | 1014.5 |
| 20260506101356 | 32 | 205 | 2.0 | 8.0 | 0.00 | 0.00 | 0.00 | 53 | 1014.5 |
| 20260506100829 | 32 | 271 | 1.0 | 4.0 | 0.00 | 0.00 | 0.00 | 53 | 1014.5 |
| 20260506100534 | 32 | 227 | 1.0 | 4.0 | 0.00 | 0.00 | 0.00 | 52 | 1014.5 |
| 20260506095758 | 33 | 227 | 1.0 | 4.0 | 0.00 | 0.00 | 0.00 | 52 | 1014.4 |
| 20260506095233 | 33 | 229 | 1.0 | 4.0 | 0.00 | 0.00 | 0.00 | 52 | 1014.4 |
| 20260506094957 | 33 | 229 | 1.0 | 4.0 | 0.00 | 0.00 | 0.00 | 51 | 1014.4 |
| 20260506094224 | 33 | 242 | 2.0 | 7.0 | 0.00 | 0.00 | 0.00 | 51 | 1014.4 |
| 20260506093711 | 33 | 284 | 2.0 | 7.0 | 0.00 | 0.00 | 0.00 | 51 | 1014.5 |
| 20260506093213 | 33 | 278 | 3.0 | 7.0 | 0.00 | 0.00 | 0.00 | 51 | 1014.4 |
| 20260506092701 | 33 | 302 | 2.0 | 7.0 | 0.00 | 0.00 | 0.00 | 51 | 1014.4 |
| 20260506092204 | 33 | 275 | 2.0 | 7.0 | 0.00 | 0.00 | 0.00 | 50 | 1014.3 |
| 20260506091636 | 33 | 260 | 2.0 | 8.0 | 0.00 | 0.00 | 0.00 | 50 | 1014.3 |
| 20260506091405 | 33 | 288 | 2.0 | 8.0 | 0.00 | 0.00 | 0.00 | 50 | 1014.3 |
| 20260506090621 | 33 | 301 | 2.0 | 5.0 | 0.00 | 0.00 | 0.00 | 50 | 1014.4 |
| 20260506090124 | 33 | 266 | 2.0 | 4.0 | 0.00 | 0.00 | 0.00 | 49 | 1014.3 |
| 20260506085557 | 33 | 262 | 2.0 | 8.0 | 0.00 | 0.00 | 0.00 | 48 | 1014.3 |
| 20260506085054 | 33 | 248 | 3.0 | 7.0 | 0.00 | 0.00 | 0.00 | 48 | 1014.3 |
| 20260506084529 | 33 | 273 | 3.0 | 9.0 | 0.00 | 0.00 | 0.00 | 47 | 1014.2 |
| 20260506084233 | 33 | 292 | 3.0 | 6.0 | 0.00 | 0.00 | 0.00 | 47 | 1014.3 |
| 20260506083435 | 34 | 268 | 3.0 | 8.0 | 0.00 | 0.00 | 0.00 | 47 | 1014.2 |
| 20260506083143 | 34 | 296 | 3.0 | 8.0 | 0.00 | 0.00 | 0.00 | 47 | 1014.3 |
| 20260506082406 | 34 | 278 | 2.0 | 8.0 | 0.00 | 0.00 | 0.00 | 46 | 1014.2 |
| 20260506081906 | 34 | 284 | 2.0 | 7.0 | 0.00 | 0.00 | 0.00 | 46 | 1014.0 |
| 20260506081336 | 34 | 261 | 3.0 | 13.0 | 0.00 | 0.00 | 0.00 | 45 | 1014.1 |
| 20260506080835 | 34 | 261 | 4.0 | 13.0 | 0.00 | 0.00 | 0.00 | 45 | 1014.2 |
| 20260506080540 | 35 | 263 | 4.0 | 12.0 | 0.00 | 0.00 | 0.00 | 45 | 1014.1 |
| 20260506073116 | 37 | 255 | 3.0 | 8.0 | 0.00 | 0.00 | 0.00 | 46 | 1013.9 |
| 20260506072550 | 37 | 285 | 4.0 | 13.0 | 0.00 | 0.00 | 0.00 | 46 | 1013.9 |
| 20260506072052 | 37 | 284 | 4.0 | 12.0 | 0.00 | 0.00 | 0.00 | 45 | 1013.8 |
| 20260506071526 | 37 | 34 | 2.0 | 7.0 | 0.00 | 0.00 | 0.00 | 45 | 1013.9 |
| 20260506071233 | 37 | 287 | 2.0 | 9.0 | 0.00 | 0.00 | 0.00 | 44 | 1013.8 |
| 20260506070504 | 37 | 289 | 3.0 | 9.0 | 0.00 | 0.00 | 0.00 | 44 | 1013.7 |
| 20260506061824 | 37 | 261 | 4.0 | 9.0 | 0.00 | 0.00 | 0.00 | 43 | 1013.9 |
| 20260506061328 | 37 | 326 | 3.0 | 9.0 | 0.00 | 0.00 | 0.00 | 43 | 1013.8 |
| 20260506060802 | 38 | 288 | 1.0 | 4.0 | 0.00 | 0.00 | 0.00 | 43 | 1013.8 |
| 20260506060510 | 38 | 204 | 2.0 | 8.0 | 0.00 | 0.00 | 0.00 | 43 | 1013.8 |
| 20260506051255 | 38 | 275 | 3.0 | 11.0 | 0.00 | 0.00 | 0.00 | 40 | 1013.4 |
| 20260506050500 | 38 | 239 | 3.0 | 10.0 | 0.00 | 0.00 | 0.00 | 41 | 1013.3 |
| 20260506050212 | 38 | 298 | 3.0 | 10.0 | 0.00 | 0.00 | 0.00 | 41 | 1013.3 |
| 20260506044856 | 38 | 277 | 2.0 | 8.0 | 0.00 | 0.00 | 0.00 | 42 | 1013.3 |
| 20260506044353 | 38 | 109 | 1.0 | 5.0 | 0.00 | 0.00 | 0.00 | 42 | 1013.3 |
| 20260506043844 | 38 | 84 | 1.0 | 5.0 | 0.00 | 0.00 | 0.00 | 42 | 1013.3 |
| 20260506043326 | 38 | 324 | 1.0 | 3.0 | 0.00 | 0.00 | 0.00 | 42 | 1013.4 |
| 20260506042825 | 38 | 324 | 1.0 | 4.0 | 0.00 | 0.00 | 0.00 | 42 | 1013.4 |
| 20260506042323 | 38 | 322 | 4.0 | 11.0 | 0.00 | 0.00 | 0.00 | 41 | 1013.5 |
| 20260506041823 | 38 | 234 | 4.0 | 11.0 | 0.00 | 0.00 | 0.00 | 41 | 1013.5 |
| 20260506041311 | 38 | 271 | 3.0 | 10.0 | 0.00 | 0.00 | 0.00 | 41 | 1013.5 |
| 20260506041040 | 38 | 355 | 3.0 | 10.0 | 0.00 | 0.00 | 0.00 | 42 | 1013.5 |
| 20260506040240 | 38 | 259 | 3.0 | 7.0 | 0.00 | 0.00 | 0.00 | 42 | 1013.5 |
| 20260506040009 | 38 | 264 | 3.0 | 7.0 | 0.00 | 0.00 | 0.00 | 42 | 1013.6 |
| 20260506035509 | 38 | 302 | 3.0 | 7.0 | 0.00 | 0.00 | 0.00 | 42 | 1013.5 |
| 20260506034740 | 38 | 263 | 3.0 | 7.0 | 0.00 | 0.00 | 0.00 | 42 | 1013.4 |
| 20260506034236 | 38 | 208 | 2.0 | 7.0 | 0.00 | 0.00 | 0.00 | 42 | 1013.5 |
| 20260506033733 | 38 | 250 | 1.0 | 4.0 | 0.00 | 0.00 | 0.00 | 42 | 1013.4 |
| 20260506033210 | 38 | 250 | 3.0 | 11.0 | 0.00 | 0.00 | 0.00 | 41 | 1013.4 |
| 20260506032647 | 38 | 232 | 4.0 | 11.0 | 0.00 | 0.00 | 0.00 | 41 | 1013.5 |
| 20260506032123 | 38 | 303 | 3.0 | 8.0 | 0.00 | 0.00 | 0.00 | 41 | 1013.5 |
| 20260506031827 | 39 | 234 | 3.0 | 9.0 | 0.00 | 0.00 | 0.00 | 41 | 1013.4 |
| 20260506031045 | 39 | 244 | 3.0 | 9.0 | 0.00 | 0.00 | 0.00 | 40 | 1013.4 |
| 20260506030523 | 39 | 252 | 2.0 | 8.0 | 0.00 | 0.00 | 0.00 | 40 | 1013.4 |
| 20260506025954 | 39 | 271 | 3.0 | 7.0 | 0.00 | 0.00 | 0.00 | 40 | 1013.4 |
| 20260506025724 | 39 | 321 | 4.0 | 7.0 | 0.00 | 0.00 | 0.00 | 39 | 1013.4 |
| 20260506024933 | 39 | 340 | 4.0 | 11.0 | 0.00 | 0.00 | 0.00 | 39 | 1013.2 |
| 20260506024710 | 39 | 317 | 3.0 | 9.0 | 0.00 | 0.00 | 0.00 | 40 | 1013.2 |
| 20260506024433 | 39 | 291 | 3.0 | 11.0 | 0.00 | 0.00 | 0.00 | 39 | 1013.2 |
| 20260506023433 | 39 | 337 | 3.0 | 9.0 | 0.00 | 0.00 | 0.00 | 40 | 1013.1 |
| 20260506022931 | 39 | 317 | 4.0 | 14.0 | 0.00 | 0.00 | 0.00 | 40 | 1013.1 |
| 20260506022431 | 39 | 330 | 3.0 | 14.0 | 0.00 | 0.00 | 0.00 | 40 | 1013.0 |
| 20260506021928 | 39 | 277 | 3.0 | 10.0 | 0.00 | 0.00 | 0.00 | 40 | 1013.1 |
| 20260506021423 | 39 | 268 | 4.0 | 10.0 | 0.00 | 0.00 | 0.00 | 40 | 1013.0 |
| 20260506021412 | 39 | 317 | 3.0 | 9.0 | 0.00 | 0.00 | 0.00 | 39 | 1013.0 |
| 20260506020410 | 40 | 286 | 3.0 | 9.0 | 0.00 | 0.00 | 0.00 | 39 | 1012.9 |
| 20260506015911 | 40 | 256 | 4.0 | 12.0 | 0.00 | 0.00 | 0.00 | 39 | 1012.7 |
| 20260506015345 | 40 | 286 | 5.0 | 12.0 | 0.00 | 0.00 | 0.00 | 39 | 1012.7 |
| 20260506014819 | 40 | 269 | 5.0 | 11.0 | 0.00 | 0.00 | 0.00 | 39 | 1012.6 |
| 20260506014252 | 40 | 262 | 5.0 | 13.0 | 0.00 | 0.00 | 0.00 | 38 | 1012.6 |
| 20260506013748 | 40 | 218 | 6.0 | 14.0 | 0.00 | 0.00 | 0.00 | 38 | 1012.5 |
| 20260506013245 | 40 | 270 | 7.0 | 14.0 | 0.00 | 0.00 | 0.00 | 38 | 1012.4 |
| 20260506012743 | 40 | 298 | 5.0 | 12.0 | 0.00 | 0.00 | 0.00 | 37 | 1012.3 |
| 20260506012216 | 40 | 306 | 4.0 | 10.0 | 0.00 | 0.00 | 0.00 | 37 | 1012.4 |
| 20260506011712 | 40 | 340 | 5.0 | 12.0 | 0.00 | 0.00 | 0.00 | 37 | 1012.4 |
| 20260506011155 | 40 | 245 | 4.0 | 12.0 | 0.00 | 0.00 | 0.00 | 37 | 1012.2 |
| 20260506010627 | 40 | 252 | 5.0 | 12.0 | 0.00 | 0.00 | 0.00 | 37 | 1012.2 |
| 20260506010125 | 40 | 234 | 5.0 | 12.0 | 0.00 | 0.00 | 0.00 | 37 | 1012.0 |
| 20260506005622 | 41 | 271 | 5.0 | 15.0 | 0.00 | 0.00 | 0.00 | 37 | 1012.2 |
| 20260506005117 | 41 | 232 | 6.0 | 15.0 | 0.00 | 0.00 | 0.00 | 37 | 1012.1 |
| 20260506004615 | 41 | 291 | 5.0 | 12.0 | 0.00 | 0.00 | 0.00 | 37 | 1012.1 |